Date String (YYYY-MM-DD hh:mm:ss) UTC,Instrument flags,absolute air pressure of the measurement (hPa),sample flow rate (lpm),inlet stack bypass flow (lpm),air temperature of the measurement (°C),ambient temperature measured by the external sensor (°C),aerosol sample conditioner tube jacket temperature (°C),OPC LED temperature (°C),internal box temperature (°C),relative humidity of the measurement (%),span deviation,mass concentration of particles derived from Lorenz-Mie calculation of OPC scattering (μg/m³),mass concentration of particles derived from Lorenz-Mie calculation of OPC scattering (μg/m³),mass concentration of particles derived from Lorenz-Mie calculation of OPC scattering (μg/m³)
DateTimeUTC,F1_M11,P_M11,Q1_M11,Q2_M11,T1_M11,T2_M11,T3_M11,T4_M11,T5_M11,U1_M11,ZSPAN_M11,X0_M11,X2_M11,X1_M11
2024-02-07 05:00:00,SystemResetWarning,0817.5,5.00,000.00,022.5,021.8,000.0,031.0,024.3,15.7,0000.0,0007.43,0003.63,0003.37
2024-02-07 05:01:00,SystemResetWarning,0817.5,5.01,000.00,022.5,021.7,000.0,031.0,024.3,15.6,0000.0,0007.40,0003.60,0003.32
2024-02-07 05:02:00,SystemResetWarning,0817.5,5.00,000.00,022.5,021.7,000.0,031.0,024.3,15.6,0000.0,0007.43,0003.57,0003.29
2024-02-07 05:03:00,SystemResetWarning,0817.6,5.00,000.00,022.5,021.7,000.0,030.9,024.3,15.6,0000.0,0007.49,0003.56,0003.29
2024-02-07 05:04:00,SystemResetWarning,0817.6,4.99,000.00,022.5,021.7,000.0,030.9,024.3,15.6,0000.0,0007.55,0003.57,0003.31
2024-02-07 05:05:00,SystemResetWarning,0817.6,5.00,000.00,022.5,021.7,000.0,030.9,024.2,15.6,0000.0,0007.15,0003.55,0003.32
2024-02-07 05:06:00,SystemResetWarning,0817.5,4.99,000.00,022.5,021.7,000.0,031.0,024.2,15.7,0000.0,0007.28,0003.56,0003.32
2024-02-07 05:07:00,SystemResetWarning,0817.5,5.00,000.00,022.5,021.7,000.0,030.9,024.3,15.9,0000.0,0007.72,0003.57,0003.32
2024-02-07 05:08:00,SystemResetWarning,0817.5,5.00,000.00,022.5,021.7,000.0,030.9,024.2,15.9,0000.0,0007.94,0003.56,0003.32
2024-02-07 05:09:00,SystemResetWarning,0817.5,5.01,000.00,022.4,021.7,000.0,030.9,024.2,15.9,0000.0,0007.95,0003.56,0003.32
2024-02-07 05:10:00,SystemResetWarning,0817.6,5.00,000.00,022.4,021.7,000.0,030.9,024.1,16.3,0000.0,0007.75,0003.57,0003.34
2024-02-07 05:11:00,SystemResetWarning,0817.5,5.00,000.00,022.4,021.6,000.0,030.9,024.1,16.9,0000.0,0006.77,0003.56,0003.35
2024-02-07 05:12:00,SystemResetWarning,0817.5,4.99,000.00,022.3,021.6,000.0,030.8,024.0,16.8,0000.0,0006.80,0003.59,0003.37
2024-02-07 05:13:00,SystemResetWarning,0817.5,4.99,000.00,022.3,021.6,000.0,030.8,024.0,16.7,0000.0,0006.89,0003.61,0003.40
2024-02-07 05:14:00,SystemResetWarning,0817.4,5.00,000.00,022.3,021.6,000.0,030.8,024.1,16.5,0000.0,0007.06,0003.63,0003.39
2024-02-07 05:15:00,SystemResetWarning,0817.4,5.02,000.00,022.3,021.6,000.0,030.8,024.1,16.5,0000.0,0006.88,0003.61,0003.37
2024-02-07 05:16:00,SystemResetWarning,0817.4,5.01,000.00,022.3,021.6,000.0,030.8,024.1,16.5,0000.0,0007.31,0003.60,0003.35
2024-02-07 05:17:00,SystemResetWarning,0817.4,4.99,000.00,022.3,021.6,000.0,030.8,024.1,16.3,0000.0,0007.50,0003.59,0003.35
2024-02-07 05:18:00,SystemResetWarning,0817.3,4.99,000.00,022.3,021.6,000.0,030.8,024.1,16.1,0000.0,0007.00,0003.58,0003.35
2024-02-07 05:19:00,SystemResetWarning,0817.3,5.00,000.00,022.3,021.6,000.0,030.8,024.1,16.1,0000.0,0006.63,0003.58,0003.34
2024-02-07 05:20:00,SystemResetWarning,0817.3,5.00,000.00,022.3,021.6,000.0,030.8,024.1,16.2,0000.0,0006.55,0003.57,0003.34
2024-02-07 05:21:00,SystemResetWarning,0817.3,5.00,000.00,022.3,021.6,000.0,030.8,024.1,16.1,0000.0,0006.64,0003.59,0003.37
2024-02-07 05:22:00,SystemResetWarning,0817.3,5.01,000.00,022.3,021.6,000.0,030.8,024.0,16.2,0000.0,0006.97,0003.65,0003.40
2024-02-07 05:23:00,SystemResetWarning,0817.3,5.00,000.00,022.3,021.6,000.0,030.8,024.1,16.3,0000.0,0007.27,0003.69,0003.41
2024-02-07 05:24:00,SystemResetWarning,0817.3,4.99,000.00,022.3,021.6,000.0,030.8,024.1,16.2,0000.0,0007.10,0003.69,0003.41
2024-02-07 05:25:00,SystemResetWarning,0817.4,4.99,000.00,022.3,021.6,000.0,030.8,024.1,16.3,0000.0,0006.83,0003.68,0003.42
2024-02-07 05:26:00,SystemResetWarning,0817.3,5.00,000.00,022.3,021.6,000.0,030.7,024.1,16.4,0000.0,0007.01,0003.70,0003.45
2024-02-07 05:27:00,SystemResetWarning,0817.4,4.99,000.00,022.3,021.6,000.0,030.7,024.0,16.4,0000.0,0007.33,0003.72,0003.47
2024-02-07 05:28:00,SystemResetWarning,0817.4,5.01,000.00,022.3,021.6,000.0,030.7,024.0,16.6,0000.0,0007.11,0003.76,0003.50
2024-02-07 05:29:00,SystemResetWarning,0817.4,5.01,000.00,022.2,021.6,000.0,030.7,024.1,16.6,0000.0,0007.60,0003.79,0003.51
2024-02-07 05:30:00,SystemResetWarning,0817.4,5.01,000.00,022.3,021.6,000.0,030.7,024.1,16.5,0000.0,0008.01,0003.78,0003.51
2024-02-07 05:31:00,SystemResetWarning,0817.4,5.01,000.00,022.3,021.6,000.0,030.7,024.1,16.5,0000.0,0008.61,0003.80,0003.52
2024-02-07 05:32:00,SystemResetWarning,0817.3,4.99,000.00,022.2,021.5,000.0,030.7,024.0,16.6,0000.0,0008.66,0003.82,0003.52
2024-02-07 05:33:00,SystemResetWarning,0817.3,4.99,000.00,022.2,021.5,000.0,030.7,024.0,16.6,0000.0,0008.64,0003.80,0003.49
2024-02-07 05:34:00,SystemResetWarning,0817.3,4.99,000.00,022.2,021.5,000.0,030.7,024.0,16.7,0000.0,0008.48,0003.76,0003.47
2024-02-07 05:35:00,SystemResetWarning,0817.4,5.01,000.00,022.2,021.5,000.0,030.7,024.0,16.8,0000.0,0008.55,0003.75,0003.46
2024-02-07 05:36:00,SystemResetWarning,0817.3,5.01,000.00,022.2,021.5,000.0,030.7,024.0,16.8,0000.0,0008.48,0003.71,0003.44
2024-02-07 05:37:00,SystemResetWarning,0817.3,4.99,000.00,022.2,021.5,000.0,030.7,024.0,16.8,0000.0,0008.44,0003.67,0003.41
2024-02-07 05:38:00,SystemResetWarning,0817.2,4.99,000.00,022.2,021.5,000.0,030.7,024.0,16.8,0000.0,0008.01,0003.65,0003.39
2024-02-07 05:39:00,SystemResetWarning,0817.2,5.00,000.00,022.2,021.5,000.0,030.7,024.0,17.0,0000.0,0008.19,0003.66,0003.37
2024-02-07 05:40:00,SystemResetWarning,0817.2,5.01,000.00,022.2,021.5,000.0,030.7,024.0,17.0,0000.0,0008.67,0003.65,0003.37
2024-02-07 05:41:00,SystemResetWarning,0817.2,5.00,000.00,022.2,021.5,000.0,030.7,024.0,17.0,0000.0,0008.27,0003.66,0003.38
2024-02-07 05:42:00,SystemResetWarning,0817.2,5.00,000.00,022.2,021.5,000.0,030.7,024.0,17.0,0000.0,0007.89,0003.69,0003.39
2024-02-07 05:43:00,SystemResetWarning,0817.2,5.00,000.00,022.2,021.5,000.0,030.7,024.0,17.0,0000.0,0007.74,0003.72,0003.42
2024-02-07 05:44:00,SystemResetWarning,0817.2,4.99,000.00,022.2,021.5,000.0,030.7,024.0,17.0,0000.0,0007.77,0003.75,0003.44
2024-02-07 05:45:00,SystemResetWarning,0817.2,5.00,000.00,022.2,021.5,000.0,030.7,024.0,17.1,0000.0,0007.88,0003.75,0003.45
2024-02-07 05:46:00,SystemResetWarning,0817.1,4.99,000.00,022.2,021.5,000.0,030.7,024.0,17.1,0000.0,0007.75,0003.71,0003.42
2024-02-07 05:47:00,SystemResetWarning,0817.1,5.01,000.00,022.2,021.5,000.0,030.7,024.0,17.1,0000.0,0007.75,0003.68,0003.39
2024-02-07 05:48:00,SystemResetWarning,0817.1,5.01,000.00,022.2,021.5,000.0,030.7,024.0,17.1,0000.0,0008.00,0003.68,0003.36
2024-02-07 05:49:00,SystemResetWarning,0817.1,5.01,000.00,022.2,021.5,000.0,030.6,024.0,17.1,0000.0,0008.24,0003.64,0003.32
2024-02-07 05:50:00,SystemResetWarning,0817.1,5.00,000.00,022.2,021.5,000.0,030.6,024.0,17.1,0000.0,0007.72,0003.54,0003.26
2024-02-07 05:51:00,SystemResetWarning,0817.1,5.00,000.00,022.2,021.5,000.0,030.6,024.0,17.1,0000.0,0006.83,0003.45,0003.18
2024-02-07 05:52:00,SystemResetWarning,0817.1,5.00,000.00,022.2,021.5,000.0,030.6,024.0,17.1,0000.0,0006.47,0003.41,0003.11
2024-02-07 05:53:00,SystemResetWarning,0817.1,5.00,000.00,022.2,021.5,000.0,030.6,024.0,17.1,0000.0,0006.37,0003.32,0002.97
2024-02-07 05:54:00,SystemResetWarning,0817.1,5.00,000.00,022.2,021.5,000.0,030.6,024.0,17.1,0000.0,0006.13,0003.19,0002.76
2024-02-07 05:55:00,SystemResetWarning,0817.1,5.00,000.00,022.2,021.5,000.0,030.6,024.0,17.1,0000.0,0006.12,0003.08,0002.60
2024-02-07 05:56:00,SystemResetWarning,0817.1,4.99,000.00,022.2,021.5,000.0,030.6,024.0,17.0,0000.0,0006.66,0002.96,0002.45
2024-02-07 05:57:00,SystemResetWarning,0817.1,5.00,000.00,022.2,021.5,000.0,030.6,024.0,17.0,0000.0,0007.59,0002.94,0002.40
2024-02-07 05:58:00,SystemResetWarning,0817.1,5.01,000.00,022.2,021.5,000.0,030.6,023.9,17.0,0000.0,0007.69,0002.91,0002.34
2024-02-07 05:59:00,SystemResetWarning,0817.0,5.01,000.00,022.2,021.5,000.0,030.6,024.0,17.0,0000.0,0007.77,0002.86,0002.31
